Location: Unnamed
(23.5608°S, 46.6833°W)
Time: 06:17:20
(UTC-03:00)

CZ-6A DEB - Visible Passes

Search period start: 08 December 2023 00:00
Search period end: 18 December 2023 00:00
Orbit: 670 x 834 km, 98.6° (Epoch: 07 December)

Date Brightness Start Highest point End Pass type
(mag) Time Alt. Az. Time Alt. Az. Time Alt. Az.
09 Dec ? 19:57:32 10° SW 19:59:42 13° WSW 20:01:54 10° W visible
10 Dec ? 19:14:45 10° S 19:19:22 36° WSW 19:24:08 10° NW visible
12 Dec ? 19:32:37 10° SSW 19:36:40 24° WSW 19:40:47 10° NW visible
14 Dec ? 19:50:51 10° SW 19:53:50 16° WSW 19:56:53 10° WNW visible
15 Dec ? 19:08:32 10° S 19:13:25 43° WSW 19:18:27 10° NW visible
17 Dec ? 19:26:10 10° SSW 19:30:35 28° WSW 19:35:06 10° NW visible
